Previsão horária em Aberchirder

Hoje, 26 Janeiro, Terça-feira

Tempo Temperatura Precipitação Vento Pressão Humidade
00:00 -2°C° 0.1 mm 4 m/s 745 mmHg 90%
01:00 -1°C° 0.1 mm 3 m/s 746 mmHg 90%
02:00 -1°C° 0.1 mm 3 m/s 746 mmHg 90%
03:00 -1°C° 0.1 mm 3 m/s 746 mmHg 91%
04:00 -1°C° 0 mm 2 m/s 746 mmHg 91%
05:00 -1°C° 0 mm 2 m/s 746 mmHg 91%
06:00 +1°C° 0 mm 2 m/s 746 mmHg 91%
07:00 +2°C° 0 mm 1 m/s 746 mmHg 91%
08:00 +2°C° 0 mm 1 m/s 746 mmHg 92%
09:00 +2°C° 0 mm 1 m/s 746 mmHg 92%
10:00 +1°C° 0 mm 2 m/s 746 mmHg 90%
11:00 +2°C° 0 mm 2 m/s 746 mmHg 88%
12:00 +3°C° 0 mm 2 m/s 746 mmHg 85%
13:00 +2°C° 0 mm 3 m/s 746 mmHg 86%
14:00 +2°C° 0 mm 3 m/s 745 mmHg 87%
15:00 +1°C° 0 mm 4 m/s 745 mmHg 88%
16:00 0°C° 0.3 mm 4 m/s 744 mmHg 90%
17:00 0°C° 0.3 mm 5 m/s 744 mmHg 93%
18:00 0°C° 0.3 mm 5 m/s 743 mmHg 95%
19:00 -1°C° 0.9 mm 5 m/s 743 mmHg 96%
20:00 -1°C° 0.9 mm 4 m/s 743 mmHg 97%
21:00 -1°C° 0.9 mm 4 m/s 742 mmHg 98%
22:00 -1°C° 0.2 mm 4 m/s 743 mmHg 98%
23:00 +1°C° 0.2 mm 3 m/s 743 mmHg 97%

Amanhã, 27 Janeiro, Quarta-feira

Tempo Temperatura Precipitação Vento Pressão Humidade
00:00 +1°C° 0.2 mm 3 m/s 743 mmHg 97%
01:00 +2°C° 0.1 mm 2 m/s 743 mmHg 97%
02:00 +2°C° 0.1 mm 2 m/s 743 mmHg 96%
03:00 +2°C° 0.1 mm 2 m/s 743 mmHg 96%
04:00 +1°C° 0.1 mm 3 m/s 743 mmHg 95%
05:00 0°C° 0.1 mm 4 m/s 744 mmHg 93%
06:00 0°C° 0.1 mm 5 m/s 745 mmHg 92%
07:00 -1°C° 0.1 mm 4 m/s 745 mmHg 89%
08:00 -1°C° 0.1 mm 4 m/s 746 mmHg 85%
09:00 -1°C° 0.1 mm 3 m/s 747 mmHg 82%
10:00 0°C° 0 mm 3 m/s 747 mmHg 81%
11:00 +1°C° 0 mm 3 m/s 748 mmHg 79%
12:00 +1°C° 0 mm 3 m/s 748 mmHg 78%
13:00 +1°C° 0 mm 3 m/s 748 mmHg 78%
14:00 +1°C° 0 mm 3 m/s 748 mmHg 79%
15:00 0°C° 0 mm 3 m/s 748 mmHg 80%
16:00 -1°C° 0 mm 3 m/s 749 mmHg 80%
17:00 -1°C° 0 mm 2 m/s 749 mmHg 81%
18:00 -2°C° 0 mm 2 m/s 749 mmHg 81%
19:00 -2°C° 0 mm 2 m/s 749 mmHg 81%
20:00 -3°C° 0 mm 2 m/s 749 mmHg 81%
21:00 -1°C° 0 mm 1 m/s 749 mmHg 81%
22:00 -1°C° 0 mm 1 m/s 748 mmHg 80%
23:00 -1°C° 0 mm 1 m/s 748 mmHg 80%

Depois de amanhã, 28 Janeiro, Quinta-feira

Tempo Temperatura Precipitação Vento Pressão Humidade
00:00 -3°C° 0 mm 2 m/s 747 mmHg 80%
01:00 -3°C° 0 mm 2 m/s 746 mmHg 80%
02:00 -2°C° 0 mm 2 m/s 746 mmHg 79%
03:00 -2°C° 0 mm 2 m/s 745 mmHg 79%
04:00 -2°C° 0 mm 2 m/s 744 mmHg 79%
05:00 -2°C° 0 mm 3 m/s 744 mmHg 78%
06:00 -2°C° 0 mm 3 m/s 743 mmHg 78%
07:00 -1°C° 0 mm 3 m/s 743 mmHg 78%
08:00 -1°C° 0 mm 3 m/s 742 mmHg 78%
09:00 -1°C° 0 mm 3 m/s 742 mmHg 77%
10:00 -1°C° 0 mm 4 m/s 742 mmHg 76%
11:00 -1°C° 0 mm 4 m/s 742 mmHg 75%
12:00 0°C° 0 mm 4 m/s 742 mmHg 74%
13:00 0°C° 0 mm 4 m/s 741 mmHg 75%
14:00 0°C° 0 mm 4 m/s 741 mmHg 76%
15:00 0°C° 0 mm 4 m/s 740 mmHg 78%
16:00 -1°C° 0 mm 4 m/s 740 mmHg 79%
17:00 -1°C° 0 mm 5 m/s 740 mmHg 80%
18:00 -1°C° 0 mm 5 m/s 740 mmHg 81%
19:00 -1°C° 0.1 mm 5 m/s 740 mmHg 83%
20:00 -1°C° 0.1 mm 5 m/s 740 mmHg 85%
21:00 -1°C° 0.1 mm 5 m/s 740 mmHg 87%
22:00 -1°C° 0.1 mm 4 m/s 740 mmHg 86%
23:00 -1°C° 0.1 mm 4 m/s 740 mmHg 86%

29 Janeiro, Sexta-feira

Tempo Temperatura Precipitação Vento Pressão Humidade
00:00 -1°C° 0.1 mm 4 m/s 740 mmHg 86%
01:00 -1°C° 0.1 mm 4 m/s 740 mmHg 86%
02:00 -1°C° 0.1 mm 4 m/s 740 mmHg 86%
03:00 -1°C° 0.1 mm 4 m/s 740 mmHg 86%
04:00 0°C° 0 mm 3 m/s 740 mmHg 86%
05:00 0°C° 0 mm 3 m/s 740 mmHg 86%
06:00 0°C° 0 mm 3 m/s 740 mmHg 86%
07:00 0°C° 0 mm 3 m/s 741 mmHg 85%
08:00 0°C° 0 mm 3 m/s 741 mmHg 84%
09:00 0°C° 0 mm 3 m/s 741 mmHg 83%
10:00 0°C° 0 mm 3 m/s 741 mmHg 82%
11:00 +1°C° 0 mm 3 m/s 742 mmHg 80%
12:00 +1°C° 0 mm 3 m/s 742 mmHg 79%
13:00 +1°C° 0 mm 3 m/s 742 mmHg 81%
14:00 +2°C° 0 mm 2 m/s 742 mmHg 83%
15:00 +2°C° 0 mm 2 m/s 743 mmHg 85%
16:00 +1°C° 0.1 mm 2 m/s 743 mmHg 85%
17:00 +1°C° 0.1 mm 2 m/s 743 mmHg 85%
18:00 0°C° 0.1 mm 3 m/s 743 mmHg 86%
19:00 0°C° 0 mm 3 m/s 743 mmHg 88%
20:00 0°C° 0 mm 3 m/s 743 mmHg 89%
21:00 0°C° 0 mm 3 m/s 743 mmHg 91%
22:00 0°C° 0 mm 3 m/s 744 mmHg 91%
23:00 0°C° 0 mm 3 m/s 744 mmHg 92%

30 Janeiro, Sábado

Tempo Temperatura Precipitação Vento Pressão Humidade
00:00 0°C° 0 mm 3 m/s 744 mmHg 92%
01:00 0°C° 0 mm 3 m/s 744 mmHg 92%
02:00 0°C° 0 mm 3 m/s 744 mmHg 92%
03:00 0°C° 0 mm 3 m/s 744 mmHg 92%
04:00 0°C° 0.1 mm 3 m/s 744 mmHg 93%
05:00 +1°C° 0.1 mm 2 m/s 743 mmHg 95%
06:00 +1°C° 0.1 mm 2 m/s 743 mmHg 97%
07:00 +1°C° 0.2 mm 2 m/s 744 mmHg 97%
08:00 +1°C° 0.2 mm 2 m/s 744 mmHg 98%
09:00 +1°C° 0.2 mm 2 m/s 744 mmHg 98%
10:00 +2°C° 0.1 mm 2 m/s 744 mmHg 98%
11:00 +2°C° 0.1 mm 2 m/s 744 mmHg 97%
12:00 +3°C° 0.1 mm 2 m/s 744 mmHg 96%
13:00 +3°C° 0 mm 2 m/s 744 mmHg 96%
14:00 +3°C° 0 mm 2 m/s 744 mmHg 95%
15:00 +3°C° 0 mm 2 m/s 743 mmHg 94%
16:00 +2°C° 0 mm 2 m/s 743 mmHg 95%
17:00 +2°C° 0 mm 2 m/s 743 mmHg 95%
18:00 +1°C° 0 mm 2 m/s 743 mmHg 96%
19:00 0°C° 0 mm 3 m/s 742 mmHg 95%
20:00 0°C° 0 mm 4 m/s 742 mmHg 95%
21:00 0°C° 0 mm 4 m/s 742 mmHg 95%
22:00 0°C° 0 mm 5 m/s 741 mmHg 95%
23:00 0°C° 0 mm 5 m/s 740 mmHg 95%

31 Janeiro, Domingo

Tempo Temperatura Precipitação Vento Pressão Humidade
00:00 0°C° 0 mm 5 m/s 740 mmHg 95%
01:00 -1°C° 0 mm 6 m/s 738 mmHg 94%
02:00 +1°C° 0 mm 6 m/s 737 mmHg 94%
03:00 0°C° 0 mm 7 m/s 736 mmHg 93%
04:00 0°C° 0.1 mm 8 m/s 735 mmHg 94%
05:00 0°C° 0.1 mm 9 m/s 734 mmHg 95%
06:00 0°C° 0.1 mm 10 m/s 734 mmHg 95%
07:00 -2°C° 0.6 mm 11 m/s 733 mmHg 95%
08:00 -2°C° 0.6 mm 11 m/s 732 mmHg 96%
09:00 -2°C° 0.6 mm 12 m/s 732 mmHg 96%
10:00 -2°C° 0.5 mm 12 m/s 731 mmHg 96%
11:00 -2°C° 0.5 mm 12 m/s 731 mmHg 96%
12:00 -2°C° 0.5 mm 12 m/s 730 mmHg 96%
13:00 -2°C° 0.6 mm 12 m/s 730 mmHg 96%
14:00 -1°C° 0.6 mm 12 m/s 730 mmHg 96%
15:00 -1°C° 0.6 mm 12 m/s 729 mmHg 96%
16:00 -1°C° 0.7 mm 12 m/s 730 mmHg 96%
17:00 -1°C° 0.7 mm 12 m/s 730 mmHg 95%
18:00 -1°C° 0.7 mm 12 m/s 730 mmHg 95%
19:00 -1°C° 0.3 mm 12 m/s 730 mmHg 95%
20:00 -1°C° 0.3 mm 11 m/s 730 mmHg 94%
21:00 -1°C° 0.3 mm 11 m/s 731 mmHg 94%
22:00 -1°C° 0.3 mm 11 m/s 731 mmHg 93%
23:00 -1°C° 0.3 mm 11 m/s 731 mmHg 93%
Mostrar mais